This demonstration page uses our WeatherBlox Daily Observations layout. Learn more.

Left ArrowRight Arrow

Hourly Observations for February 23, 2015

Temp ( °F °C ) Dew Point ( °F °C ) Humidity (%) Winds ( mph kmh ) Pressure ( in mb ) Visibility ( mi km ) Precip ( " mm )
12:14 am 00:14 Cloudy 25 -4 19 -7 80 80 NE 15 24 30.62 1037 7 11 0.00 0.00
12:28 am 00:28 Cloudy with Haze 25 -4 19 -7 80 80 NE 12 19 30.62 1037 4 6 0.00 0.00
12:53 am 00:53 Cloudy with Haze 25 -3.9 20 -6.7 81 81 NE 10 17 30.46 1032 6 10 0.00 0.03
1:12 am 01:12 Cloudy with Mist and Fog 25 -4 21 -6 86 86 NE 13 20 30.62 1037 6 10 0.00 0.00
1:53 am 01:53 Cloudy 25 -3.9 20 -6.7 81 81 NE 15 24 30.44 1031 10 16 0.00 0.00
2:03 am 02:03 Cloudy 25 -4 19 -7 80 80 NE 12 19 30.56 1035 10 16 0.00 0.00
2:21 am 02:21 Cloudy 25 -3.9 20 -6.7 81 81 NE 9 15 30.56 1035 10 16 0.00 0.00
2:29 am 02:29 Cloudy 25 -3.9 20 -6.7 81 81 NNE 10 17 30.56 1035 8 13 0.00 0.00
2:44 am 02:44 Cloudy 25 -4 19 -7 80 80 NNE 14 22 30.56 1035 10 16 0.00 0.00
2:53 am 02:53 Cloudy 25 -3.9 19 -7.2 78 78 NNE 10 17 30.45 1031 10 16 0.00 0.00
3:08 am 03:08 Cloudy with Haze 25 -4 19 -7 80 80 NNE 10 17 30.62 1037 6 10 0.00 0.00
3:17 am 03:17 Cloudy with Haze 25 -3.9 20 -6.7 81 81 NNE 14 22 30.62 1037 4 6 0.00 0.00
3:38 am 03:38 Cloudy with Haze 25 -4 19 -7 80 80 NE 14 22 30.62 1037 5 8 0.00 0.00
3:53 am 03:53 Cloudy with Haze 24 -4.4 19 -7.2 81 81 NE 10 17 30.47 1032 5 8 0.00 0.00
4:06 am 04:06 Cloudy with Light Freezing Rain 24 -4.4 20 -6.7 84 84 NE 10 17 30.56 1035 3 5 0.00 0.03
4:22 am 04:22 Cloudy 25 -4 19 -7 80 80 NNE 16 26 30.62 1037 4 6 0.00 0.00
4:51 am 04:51 Cloudy 25 -4 19 -7 80 80 NE 14 22 30.62 1037 9 14 0.00 0.03
4:53 am 04:53 Cloudy 24 -4.4 19 -7.2 81 81 NE 13 20 30.48 1032 9 14 0.00 0.03
5:20 am 05:20 Cloudy with Haze 25 -4 19 -7 80 80 NE 12 19 30.62 1037 5 8 0.00 0.00
5:44 am 05:44 Cloudy 23 -5 18 -8 80 80 NE 12 19 30.62 1037 7 11 0.00 0.00
5:53 am 05:53 Cloudy 24 -4.4 18 -7.8 77 77 NE 12 19 30.48 1032 10 16 0.00 0.00
6:01 am 06:01 Cloudy 23 -5 18 -7.8 81 81 NE 12 19 30.62 1037 10 16 0.00 0.00
6:22 am 06:22 Cloudy 25 -4 18 -8 74 74 NNE 12 19 30.65 1038 10 16 0.00 0.00
6:53 am 06:53 Cloudy with Mist and Fog 23 -5 19 -7.2 85 85 NE 8 13 30.51 1033 5 8 0.00 0.00
7:05 am 07:05 Cloudy with Haze 23 -5 18 -7.8 81 81 NE 13 20 30.65 1038 4 6 0.00 0.00
7:14 am 07:14 Cloudy 23 -5 18 -8 80 80 NE 12 19 30.65 1038 7 11 0.00 0.00
7:53 am 07:53 Cloudy 23 -5 18 -7.8 81 81 NE 10 17 30.53 1034 9 14 0.00 0.00
8:16 am 08:16 Cloudy with Light Snow 23 -5 19 -7.2 85 85 NNE 13 20 30.65 1038 4 6 0.00 0.03
8:23 am 08:23 Cloudy with Light Snow 23 -5 18 -7.8 81 81 NNE 14 22 30.65 1038 3 4 0.00 0.03
8:38 am 08:38 Cloudy with Haze 23 -5 18 -8 80 80 NE 10 17 30.65 1038 3 5 0.00 0.00
8:53 am 08:53 Cloudy with Haze 23 -5 18 -7.8 81 81 NE 12 19 30.55 1035 5 8 0.00 0.03
9:45 am 09:45 Cloudy 24 -4.4 17 -8.3 75 75 NE 9 15 30.65 1038 10 16 0.00 0.00
9:53 am 09:53 Cloudy 24 -4.4 18 -7.8 77 77 NNE 10 17 30.55 1035 10 16 0.00 0.00
10:00 am 10:00 Cloudy 25 -4 18 -8 74 74 NE 9 15 30.65 1038 10 16 0.00 0.00
10:30 am 10:30 Cloudy 23 -5 18 -8 80 80 NE 13 20 30.65 1038 7 11 0.00 0.00
10:38 am 10:38 Cloudy 23 -5 18 -7.8 81 81 NNE 10 17 30.65 1038 10 16 0.00 0.00
10:53 am 10:53 Cloudy 24 -4.4 18 -7.8 77 77 NE 10 17 30.55 1035 10 16 0.00 0.00
11:53 am 11:53 Cloudy 24 -4.4 18 -7.8 77 77 NNE 10 17 30.55 1035 9 14 0.00 0.00
12:53 pm 12:53 Cloudy 24 -4.4 18 -7.8 77 77 NNE 10 17 30.52 1034 10 16 0.00 0.00
1:53 pm 13:53 Cloudy 25 -3.9 18 -7.8 75 75 NE 10 17 30.49 1032 10 16 0.00 0.00
2:53 pm 14:53 Cloudy 25 -3.9 18 -7.8 75 75 NE 8 13 30.45 1031 10 16 0.00 0.00
3:53 pm 15:53 Cloudy 25 -3.9 18 -7.8 75 75 ENE 6 9 30.41 1030 10 16 0.00 0.00
4:53 pm 16:53 Cloudy 26 -3.3 19 -7.2 75 75 NE 7 11 30.40 1030 10 16 0.00 0.00
5:53 pm 17:53 Cloudy 26 -3.3 18 -7.8 71 71 NE 3 6 30.40 1029 10 16 0.00 0.00
6:15 pm 18:15 Cloudy 26 -3.3 19 -7.2 75 75 Calm 30.48 1032 10 16 0.00 0.00
6:30 pm 18:30 Cloudy 27 -3 18 -8 69 69 NE 5 7 30.48 1032 10 16 0.00 0.00
6:46 pm 18:46 Cloudy 26 -3.3 18 -7.8 71 71 ENE 3 6 30.48 1032 10 16 0.00 0.00
6:53 pm 18:53 Cloudy 26 -3.3 18 -7.8 71 71 E 6 9 30.39 1029 10 16 0.00 0.00
7:53 pm 19:53 Cloudy 26 -3.3 19 -7.2 75 75 N 3 6 30.39 1029 10 16 0.00 0.00
8:05 pm 20:05 Cloudy 26 -3.3 18 -7.8 71 71 Calm 30.48 1032 10 16 0.00 0.00
8:53 pm 20:53 Cloudy 26 -3.3 19 -7.2 75 75 NE 3 6 30.38 1029 10 16 0.00 0.00
9:53 pm 21:53 Cloudy 26 -3.3 19 -7.2 75 75 Calm 30.38 1029 10 16 0.00 0.00
10:53 pm 22:53 Cloudy 26 -3.3 19 -7.2 75 75 Calm 30.38 1029 10 16 0.00 0.00
11:53 pm 23:53 Cloudy 26 -3.3 19 -7.2 75 75 SSE 5 7 30.35 1028 10 16 0.00 0.00

Powered by AerisWeather